weather.gov     
National Weather Service

Regional Weather Roundup
NWS Homepage
This page is being discontinued on March 12, 2014.
The same data is available at this site. Please update your bookmarks.
Thank you, and we apologize for the inconvenience.
Please send an email to SR-SRH.Webmaster@noaa.gov with any concerns.


Current Version
Previous Version:    01  02  03  04  05  06  07  08  09  10  11  12  13  14  15  16  17  18  19  20  21  22  23  24  25  26  
[Printable]
891
ASUS41 KOKX 241805
RWROKX
REGIONAL WEATHER ROUNDUP
NATIONAL WEATHER SERVICE NEW YORK NY
200 PM EDT FRI OCT 24 2014

NOTE: "FAIR" INDICATES FEW OR NO CLOUDS BELOW 12,000 FEET WITH NO
SIGNIFICANT WEATHER AND/OR OBSTRUCTIONS TO VISIBILITY.

NYZ071-072-176-178-NJZ106-104-241900-
NEW YORK CITY METRO AREA


CITY           SKY/WX    TMP DP  RH WIND       PRES   REMARKS
CENTRAL PARK   CLOUDY    59  43  55 VRB7      29.80F
LAGUARDIA APRT CLOUDY    59  44  57 N12       29.77F
KENNEDY INTL   PTSUNNY   59  43  55 N13       29.79S
NEWARK/LIBERTY PTSUNNY   61  44  53 NW10      29.79F
BRNX BOT. GARD   N/A     57  43  58 N2        29.80S
TETERBORO      CLOUDY    61  44  53 NW9G16    29.77F
$$

NYZ177-179-078>081-241900-
LONG ISLAND NEW YORK

CITY           SKY/WX    TMP DP  RH WIND       PRES   REMARKS
FARMINGDALE    CLOUDY    57  43  59 NW12      29.77F
ISLIP          CLOUDY    56  44  64 NW15G21   29.74F
SHIRLEY        CLOUDY    55  44  66 NW17      29.75F
WESTHAMPTON    CLOUDY    55  45  68 NW14      29.75F
MONTAUK POINT    N/A     55  45  68 NW10      29.72F
$$

NYZ052-065-067-241900-
HUDSON VALLEY

CITY           SKY/WX    TMP DP  RH WIND       PRES   REMARKS
WHITE PLAINS   PTSUNNY   55  43  63 NW14      29.76F
NEWBURGH       NOT AVBL
MONTGOMERY     CLOUDY    59  43  55 NW17G23   29.77F
POUGHKEEPSIE   CLOUDY    57  43  59 N7        29.77F
ALBANY         DRIZZLE   49  46  90 NE6       29.81F
$$

NJZ001-105-106-008-010-013-015-019>022-104-241900-
NEW JERSEY

CITY           SKY/WX    TMP DP  RH WIND       PRES   REMARKS
NEWARK/LIBERTY PTSUNNY   61  44  53 NW10      29.79F
TETERBORO      CLOUDY    61  44  53 NW9G16    29.77F
CALDWELL       PTSUNNY   61  42  49 N13       29.79F
MORRISTOWN     MOSUNNY   64  45  48 N16G22    29.79F
SOMERVILLE     PTSUNNY   67  43  41 NW16      29.78F
SUSSEX         MOSUNNY   66  44  45 VRB6      29.79F
ANDOVER          N/A     62  42  47 N8G17     29.79F
TRENTON        PTSUNNY   66  43  43 NW13G21   29.79F
MILLVILLE      SUNNY     66  43  43 NW16G25   29.82F
ATLANTIC CITY  SUNNY     66  45  46 NW22      29.80F
WRIGHTSTOWN    MOSUNNY   64  45  49 NW15G24   29.78F
TOMS RIVER     MOSUNNY   63  45  51 NW10G16   29.79F
BELMAR         CLOUDY    63  45  51 NW12G17   29.79F
$$

PAZ047>061-062-071-241900-
EASTERN PENNSYLVANIA

CITY           SKY/WX    TMP DP  RH WIND       PRES   REMARKS
PHILADELPHIA   MOSUNNY   68  43  40 NW17G24   29.82F
ALLENTOWN      SUNNY     67  42  40 NW17G25   29.82F
SCRANTON       SUNNY     63  42  46 NW13      29.85F
$$

CTZ002-004>006-009-010-012-RIZ004-006-007-MAZ004-011-015-241900-
SOUTHERN NEW ENGLAND
 IN CT

CITY           SKY/WX    TMP DP  RH WIND       PRES   REMARKS
BRADLEY INTL   PTSUNNY   56  41  57 N15G23    29.72F
HARTFORD       CLOUDY    55  42  61 N16G22    29.73F
DANBURY        CLOUDY    54  41  61 N16       29.78F
WTRBRY/OXFORD  CLOUDY    52  39  62 NW9G23    29.76
BRIDGEPORT     CLOUDY    56  45  66 NW13G22   29.76F
MERIDEN        CLOUDY    55  42  61 NW10G23   29.74F
NEW HAVEN      CLOUDY    57  44  62 NW10      29.74S
CHESTER        CLOUDY    54  43  66 NW9       29.73S
GROTON         CLOUDY    53  44  71 NW13      29.71S
WILLIMANTIC    CLOUDY    53  43  68 N12       29.72F

 IN RI

CITY           SKY/WX    TMP DP  RH WIND       PRES   REMARKS
PROVIDENCE     CLOUDY    54  45  71 NW10      29.69F
BLOCK ISLAND   CLOUDY    54  45  71 NW9       29.69F
WESTERLY       CLOUDY    55  45  68 NW8       29.70F

 IN MA

CITY           SKY/WX    TMP DP  RH WIND       PRES   REMARKS
BOSTON         CLOUDY    50  45  83 NW14      29.68F
WORCESTER      CLOUDY    48  41  76 NW17G26   29.70F
WESTFIELD      CLOUDY    54  41  61 N16       29.73F
PROVINCETOWN   CLOUDY    52   0  11 N18G24    29.66S
NANTUCKET      CLOUDY    54  47  77 N18G26    29.65S
$$

ANZ330-335-338-340-345-350-353-355-241900-
COASTAL MARINE OBSERVATIONS


STATION/POSITION TIME  SKY/WX   TEMP    WIND        PRES    VSBY  WAVE
                                AIR SEA DIR/SP/G                  HT/PER
                 (UTC)          (F)     (DEG/KT/KT) (MB)    (MI)  (FT/S)
NY HARB ENTRANCE NOT AVBL
4S FIRE IS       1800               63                N/A           3/ 9
20S FIRE ISLAND  1800            57 63  330/ 17/ 21 1007.8          4/ 8
23SW MTP         1800                                 N/A           4/ 4
HUDSON CANYON    1800            57 66  320/ 17/ 21 1007.5          6/ 6
EXECUTION ROCKS  1800            58 62  310/ 10/ 16   N/A
WESTERN LI SOUND 1700            57     320/ 12/ 16   N/A           1
CENTRAL LI SOUND 1700            55 63  320/ 17/ 21   N/A           2/ 3
EASTERN LI SOUND 1700            55 63  330/ 14/ 17   N/A
ROBBINS REEF     1800            59     320/ 12/ 16 1007.3
$$


>>>>>>>>>>>>>>>>>>>>>>>>>>>> KEY <<<<<<<<<<<<<<<<<<<<<<<<<<<
>                                                          <
>     SKY/WX - SKY CONDITION/PRESENT WEATHER               <
>     TMP    - TEMPERATURE IN FAHRENHEIT                   <
>     DP     - DEWPOINT IN FAHRENHEIT                      <
>     RH     - RELATIVE HUMIDITY IN PERCENT                <
>     WIND   - DIRECTION AND SPEED IN MPH                  <
>     PRES   - MEAN SEA LEVEL PRESSURE IN INCHES OF HG     <
>     WCI    - WIND CHILL INDEX                            <
>     VSB    - VISIBILITY IN MILES                         <
>     HX     - HEAT INDEX                                  <
>     TC     - TEMPERATURE IN CELSIUS                      <
>     VRB    - VARIABLE WIND DIRECTION                     <
>                                                          <
>>>>>>>>>>>>>>>>>>>>>>>>>>>> KEY <<<<<<<<<<<<<<<<<<<<<<<<<<<






U.S. Dept. of Commerce
NOAA National Weather Service
1325 East West Highway
Silver Spring, MD 20910
E-mail: w-nws.webmaster@noaa.gov
Page last modified: May 16, 2007
NATIONAL WEATHER SERVICE: for Safety, for Work, for Fun - FOR LIFE